Riyadh/Khaled, Saudi Arabia

9:09 PM AST on December 02, 2016 (GMT +0300)
King Khaled International

Weather History for OERK - November, 2012

Change the Weather History Date:

Wednesday, November 28, 2012

  Actual Average Record
Temperature  
Mean Temperature 60 °F -  
Max Temperature 70 °F 74 °F 82 °F (1999)
Min Temperature 50 °F 52 °F 42 °F (2010)
Degree Days  
Heating Degree Days 5    
Growing Degree Days 10 (Base 50)    
Moisture  
Dew Point 40 °F    
Average Humidity 48    
Maximum Humidity 82    
Minimum Humidity 17    
Precipitation  
Precipitation 0.08 in - - ()
Sea Level Pressure  
Sea Level Pressure 30.16 in    
Wind  
Wind Speed 4 mph ()    
Max Wind Speed 9 mph    
Max Gust Speed -    
Visibility 6.1 miles    
Events Rain    
Averages and records for this station are not official NWS values.
T = Trace of Precipitation, MM = Missing Value Source: Averaged Metar Reports

Daily Weather History Graph

Daily Weather History Graph

Search for Another Location

Airport or City:

Trip Planner

Search our weather history database for the weather conditions in past years. The results will help you decide how hot, cold, wet, or windy it might be!

Date:

Astronomy

Nov. 28, 2012 Rise Set
Actual Time 6:19 AM AST 5:03 PM AST
Civil Twilight 5:54 AM AST 5:27 PM AST
Nautical Twilight 5:26 AM AST 5:55 PM AST
Astronomical Twilight 4:58 AM AST 6:23 PM AST
Moon 5:01 PM AST (11/28) 5:57 AM AST (11/28)
Length of Visible Light 11h 33m
Length of Day
10h 44m
Full, 100% of the Moon is Illuminated
Nov 28
Full
Nov 28
Full
Dec 6
Last Quarter
Dec 13
New
Dec 20
First Quarter

Hourly Weather History & Observations

Time (AST) Temp. Dew Point Humidity Pressure Visibility Wind Dir Wind Speed Gust Speed Precip Events Conditions
12:00 AM 56 °F 46 °F 61% 30.12 in 6 mi NNE 5.8 mph - -  
12:00 AM 57.2 °F 46.4 °F 67% 30.15 in - NNE 5.8 mph - N/A   Clear
1:00 AM 55.4 °F 44.6 °F 67% 30.15 in - NNE 3.5 mph - N/A   Clear
2:00 AM 53.6 °F 46.4 °F 77% 30.15 in - Calm Calm - N/A   Clear
3:00 AM 52 °F 41 °F 56% 30.13 in 6 mi Calm Calm - -  
3:00 AM 51.8 °F 41.0 °F 67% 30.15 in - Calm Calm - N/A   Clear
4:00 AM 51.8 °F 44.6 °F 76% 30.18 in - North 3.5 mph - N/A   Clear
5:00 AM 50.0 °F 44.6 °F 82% 30.18 in - Calm Calm - N/A   Clear
6:00 AM 50 °F 45 °F 75% 30.18 in 6 mi NNW 3.5 mph - -  
6:00 AM 50.0 °F 44.6 °F 82% 30.18 in - NNW 3.5 mph - N/A   Clear
7:00 AM 51.8 °F 44.6 °F 76% 30.21 in - North 3.5 mph - N/A   Clear
8:00 AM 53.6 °F 46.4 °F 77% 30.21 in - SW 2.3 mph - N/A   Clear
9:00 AM 61 °F 46 °F 48% 30.21 in 6 mi Calm Calm - -  
9:00 AM 60.8 °F 46.4 °F 59% 30.24 in - Calm Calm - N/A   Clear
10:00 AM 64.4 °F 46.4 °F 52% 30.24 in - Calm Calm - N/A   Clear
11:00 AM 66.2 °F 39.2 °F 37% 30.21 in - ENE 6.9 mph - N/A   Clear
12:00 PM 67 °F 34 °F 18% 30.16 in 6 mi ENE 9.2 mph - -   Scattered Clouds
12:00 PM 66.2 °F 33.8 °F 30% 30.18 in - ENE 9.2 mph - N/A   Clear
1:00 PM 69.8 °F 33.8 °F 27% 30.15 in - NE 4.6 mph - N/A   Clear
2:00 PM 69.8 °F 33.8 °F 27% 30.15 in 6.2 mi East 6.9 mph - N/A   Mostly Cloudy
3:00 PM 69 °F 34 °F 17% 30.10 in 6 mi ENE 6.9 mph - -   Scattered Clouds
3:00 PM 69.8 °F 33.8 °F 27% 30.12 in 6.2 mi ENE 6.9 mph - N/A   Mostly Cloudy
4:00 PM 68.0 °F 33.8 °F 28% 30.12 in 6.2 mi NNE 5.8 mph - N/A   Mostly Cloudy
5:00 PM 68.0 °F 33.8 °F 28% 30.12 in 6.2 mi NE 8.1 mph - N/A   Mostly Cloudy
6:00 PM 67 °F 34 °F 18% 30.11 in 6 mi ENE 8.1 mph - -   Scattered Clouds
6:00 PM 66.2 °F 33.8 °F 30% 30.12 in 6.2 mi ENE 8.1 mph - N/A   Mostly Cloudy
7:00 PM 66.2 °F 35.6 °F 32% 30.15 in 6.2 mi ENE 5.8 mph - N/A   Mostly Cloudy
8:00 PM 64.4 °F 33.8 °F 32% 30.18 in 6.2 mi East 9.2 mph - N/A   Mostly Cloudy
9:00 PM 64 °F 34 °F 21% 30.12 in 6 mi East 9.2 mph - -   Partly Cloudy
9:00 PM 64.4 °F 33.8 °F 32% 30.15 in 6.2 mi East 9.2 mph - N/A   Mostly Cloudy
10:00 PM 62.6 °F 35.6 °F 37% 30.21 in 6.2 mi ESE 4.6 mph - N/A   Mostly Cloudy
11:00 PM 57.2 °F 48.2 °F 72% 30.21 in 5.6 mi East 6.9 mph - N/A Rain Rain